Weather in Podgorny

Russia / Samara Oblast     53°14′55″N   51°10′39″E
temp.,
°C
wind,
m/s
gust,
m/s
humid.,
%
clouds,
%
prec.,
mm/h
press.,
hPa
HPBL,
m
28 february, sun
sun2801:00−9nnw4795100 0.9 999257
04:00−12nnw5995100 1.3 1000332
07:00−14nw51094100 0.3 1002362
10:00−14nw61093100 0.4 1004381
13:00−13nw6992100 0.1 1006445
16:00−12nw6992100 0.1 1009514
19:00−14nw4994100 0.2 1011350
22:00−15nw4895100 0.4 1013255
1 march, mon
mon101:00−15nw379697 0.1 1015236
04:00−17nw379591 0.2 1017186
07:00−20nw339781 0.0 101868
10:00−18nw369461 0.0 1021227
13:00−16nw359243 0.0 1021306
16:00−16nw359145 0.0 1022328
19:00−20wnw22976 0.0 102220
22:00−20wsw22973 0.0 102220
2 march, tue
tue201:00−20sw33990 0.0 102031
04:00−18ssw479941 0.0 1018124
07:00−16ssw61095100 0.0 1014254
10:00−11ssw71294100 0.3 1011420
13:00−7ssw81393100 0.9 1008634
16:00−4ssw81394100 1.6 1005736
19:00−3ssw71296100 1.1 1002634
22:00−2sw61197100 2.2 1000486
3 march, wed
wed301:00−2w4797100 0.8 999263
04:00−4w479796 0.8 999187
07:00−5w379799 0.4 1000213
10:00−3wnw4697100 0.8 1001344
13:00−1nw4691100 0.3 1002630
16:00−1nw4789100 0.4 1003722
19:00−3nw499199 0.3 1004291
22:00−4wnw379398 0.3 1007172
4 march, thu
thu401:00−6nw389595 0.1 1008184
04:00−10nw4109592 0.1 1010215
07:00−12wnw349692 0.0 101271
10:00−10wnw489586 0.0 1014277
13:00−7wsw469394 0.0 1014392
16:00−6sw6109194 0.0 1013504
19:00−8sw71493100 0.1 1012483
22:00−3sw81591100 0.1 1010789